Fairbanks Eiels, AK

7:03 PM AKST on February 20, 2018 (GMT -0900)
Eielson Air Force Base

Weather History for PAEI - December, 2013

Change the Weather History Date:

Monday, December 2, 2013

  Actual Average Record
Temperature  
Mean Temperature -18 °F -  
Max Temperature -6 °F -1 °F 44 °F (1992)
Min Temperature -28 °F -13 °F -45 °F (1970)
Degree Days  
Heating Degree Days 82    
Moisture  
Dew Point -26 °F    
Average Humidity 79    
Maximum Humidity 94    
Minimum Humidity 69    
Precipitation  
Precipitation 0.00 in - - ()
Sea Level Pressure  
Sea Level Pressure 30.76 in    
Wind  
Wind Speed 1 mph (SE)    
Max Wind Speed 5 mph    
Max Gust Speed -    
Visibility 9 miles    
Events Snow    
Averages and records for this station are not official NWS values.
T = Trace of Precipitation, MM = Missing Value Source: NWS Daily Summary

Daily Weather History Graph

Daily Weather History Graph

Search for Another Location

Airport or City:

Trip Planner

Search our weather history database for the weather conditions in past years. The results will help you decide how hot, cold, wet, or windy it might be!

Date:

Astronomy

Dec. 02, 2013 Rise Set
Actual Time 10:18 AM AKST 2:57 PM AKST
Civil Twilight 9:03 AM AKST 4:12 PM AKST
Nautical Twilight 7:55 AM AKST 5:20 PM AKST
Astronomical Twilight 6:55 AM AKST 6:20 PM AKST
Moon 9:34 AM AKST (12/2) 3:27 PM AKST (12/2)
Length of Visible Light 7h 09m
Length of Day
4h 39m
Waning Crescent, 0% of the Moon is Illuminated
Dec 2
Waning Crescent
Dec 2
New
Dec 9
First Quarter
Dec 17
Full
Dec 25
Last Quarter

Hourly Weather History & Observations

Time (AKST) Temp. Windchill Dew Point Humidity Pressure Visibility Wind Dir Wind Speed Gust Speed Precip Events Conditions
12:43 AM -25.6 °F - -29.2 °F 83% 30.74 in 8.0 mi Variable 1.2 mph - N/A   Clear
12:58 AM -24.9 °F - -29.9 °F 77% 30.83 in 10.0 mi Calm Calm - 0.00 in   Clear
1:58 AM -27.2 °F - -29.9 °F 87% 30.82 in 7.0 mi Calm Calm - N/A   Clear
2:13 AM -27.4 °F -39.2 °F -29.2 °F 91% 30.73 in 4.0 mi Variable 3.5 mph - N/A Snow Light Snow
2:28 AM -27.4 °F - -29.2 °F 91% 30.72 in 6.0 mi Calm Calm - N/A   Clear
2:43 AM -27.4 °F - -29.2 °F 91% 30.71 in 9.0 mi SSE 1.2 mph - N/A   Clear
2:58 AM -28.7 °F - -29.9 °F 94% 30.80 in 10.0 mi Calm Calm - 0.00 in   Clear
3:58 AM -26.0 °F - -29.9 °F 81% 30.81 in 10.0 mi Calm Calm - N/A   Clear
4:58 AM -27.0 °F - -29.9 °F 86% 30.81 in 10.0 mi Calm Calm - N/A   Clear
5:43 AM -25.6 °F - -29.2 °F 83% 30.71 in 4.0 mi Calm Calm - N/A   Haze
5:58 AM -25.6 °F - -29.9 °F 80% 30.80 in 10.0 mi Calm Calm - N/A   Clear
6:58 AM -26.0 °F - -29.9 °F 81% 30.80 in 10.0 mi Calm Calm - 0.00 in   Clear
7:13 AM -25.6 °F - -29.2 °F 83% 30.72 in 1.2 mi Calm Calm - N/A   Haze
7:58 AM -26.9 °F -38.5 °F -29.9 °F 85% 30.81 in 10.0 mi Variable 3.5 mph - N/A   Clear
8:58 AM -27.6 °F - -29.9 °F 89% 30.81 in 10.0 mi Variable 1.2 mph - N/A   Clear
9:58 AM -26.3 °F - -29.9 °F 83% 30.80 in 8.0 mi SE 1.2 mph - N/A   Clear
10:28 AM -25.6 °F - -29.2 °F 83% 30.71 in 10.0 mi Calm Calm - N/A   Haze
10:58 AM -24.3 °F - -29.9 °F 75% 30.80 in 10.0 mi Calm Calm - N/A   Clear
11:58 AM -24.2 °F - -29.9 °F 74% 30.79 in 9.0 mi Calm Calm - N/A   Clear
12:58 PM -23.3 °F - -29.9 °F 71% 30.79 in 10.0 mi Calm Calm - N/A   Clear
1:58 PM -21.6 °F - -28.3 °F 71% 30.76 in 10.0 mi Calm Calm - N/A   Clear
2:58 PM -20.9 °F - -27.2 °F 73% 30.75 in 10.0 mi Calm Calm - N/A   Clear
3:58 PM -21.5 °F - -27.8 °F 73% 30.75 in 10.0 mi Calm Calm - N/A   Clear
4:13 PM -20.2 °F - -27.4 °F 69% 30.67 in 8.0 mi Calm Calm - N/A   Clear
4:28 PM -20.2 °F -30.9 °F -27.4 °F 69% 30.67 in 10.0 mi Variable 3.5 mph - N/A   Clear
4:58 PM -19.3 °F - -25.4 °F 73% 30.75 in 10.0 mi Calm Calm - N/A   Clear
5:58 PM -17.3 °F - -23.3 °F 74% 30.75 in 10.0 mi Calm Calm - N/A   Clear
6:28 PM -16.6 °F - -22.0 °F 76% 30.68 in 6.0 mi Calm Calm - N/A   Haze
6:43 PM -16.6 °F -26.8 °F -22.0 °F 76% 30.68 in 10.0 mi NNW 3.5 mph - N/A   Clear
6:58 PM -16.6 °F - -22.5 °F 74% 30.76 in 10.0 mi Calm Calm - N/A   Partly Cloudy
7:58 PM -14.1 °F -26.3 °F -19.8 °F 75% 30.75 in 10.0 mi South 4.6 mph - N/A   Scattered Clouds
8:58 PM -13.2 °F - -18.9 °F 75% 30.76 in 10.0 mi Calm Calm - N/A   Mostly Cloudy
9:58 PM -10.3 °F - -15.7 °F 77% 30.78 in 10.0 mi NNW 2.3 mph - N/A   Mostly Cloudy
10:58 PM -7.8 °F - -13.0 °F 78% 30.76 in 10.0 mi Calm Calm - N/A   Overcast
11:58 PM -6.0 °F - -11.0 °F 79% 30.76 in 10.0 mi Calm Calm - N/A   Overcast